This demonstration page uses our WeatherBlox Daily Observations layout. Learn more.

Left ArrowRight Arrow

Hourly Observations for June 26, 2015

Temp ( °F °C ) Dew Point ( °F °C ) Humidity (%) Winds ( mph kmh ) Pressure ( in mb ) Visibility ( mi km ) Precip ( " mm )
12:51 am 00:51 Clear 79 26.1 61 16.1 54 54 ESE 7 11 29.79 1009 10 16 0.00 0.00
1:51 am 01:51 Clear 77 25 64 17.8 64 64 E 5 7 29.79 1009 10 16 0.00 0.00
2:51 am 02:51 Clear 76 24.4 61 16.1 60 60 SSE 3 6 29.80 1009 10 16 0.00 0.00
3:51 am 03:51 Clear 76 24.4 61 16.1 60 60 SE 8 13 29.83 1010 10 16 0.00 0.00
4:51 am 04:51 Clear 72 22.2 62 16.7 71 71 ESE 5 7 29.85 1011 10 16 0.00 0.00
5:51 am 05:51 Sunny 75 23.9 60 15.6 60 60 SSE 8 13 29.87 1012 10 16 0.00 0.00
6:51 am 06:51 Sunny 78 25.6 62 16.7 58 58 Calm 29.87 1011 10 16 0.00 0.00
7:51 am 07:51 Sunny 82 27.8 61 16.1 49 49 SSW 3 6 29.93 1014 10 16 0.00 0.00
8:51 am 08:51 Sunny 86 30 73 22.8 65 65 Calm 30.00 1016 10 16 0.00 0.03
9:51 am 09:51 Sunny 91 32.8 55 12.8 30 30 W 5 7 29.84 1010 10 16 0.00 0.00
10:51 am 10:51 Sunny 95 35 53 11.7 24 24 WSW 10 17 29.85 1011 10 16 0.00 0.00
11:51 am 11:51 Sunny 79 26.1 57 13.9 47 47 VRB 5 7 29.96 1015 10 16 0.00 0.00
12:51 pm 12:51 Sunny 100 37.8 49 9.4 18 18 WNW 7 11 29.79 1009 10 16 0.00 0.00
1:51 pm 13:51 Sunny 102 38.9 48 8.9 16 16 S 12 19 29.75 1008 10 16 0.00 0.00
2:51 pm 14:51 Sunny 103 39.4 47 8.3 15 15 VRB 5 7 29.73 1007 10 16 0.00 0.00
3:19 pm 15:19 Sunny with Nearby Thunderstorms 105 40.6 47 8.3 14 14 VRB 3 6 29.59 1002 10 16 0.00 0.00
3:46 pm 15:46 Sunny 106 41 48 9 14 14 NE 20 31 29.59 1002 10 16 0.00 0.00
3:51 pm 15:51 Sunny 106 41.1 49 9.4 15 15 NNE 17 28 29.71 1006 10 16 0.00 0.00
4:51 pm 16:51 Sunny 100 37.8 45 7.2 15 15 ENE 26 43 29.73 1007 10 16 0.00 0.00
5:51 pm 17:51 Sunny 100 37.8 43 6.1 14 14 E 13 20 29.72 1006 10 16 0.00 0.00
6:35 pm 18:35 Mostly Sunny 93 34 50 10 23 23 E 20 31 29.68 1005 10 16 0.00 0.00
6:51 pm 18:51 Sunny 94 34.4 50 10 22 22 ENE 13 20 29.75 1008 10 16 0.00 0.00
7:51 pm 19:51 Clear 93 33.9 50 10 23 23 NE 13 20 29.76 1008 10 16 0.00 0.00
8:51 pm 20:51 Clear 89 31.7 53 11.7 29 29 SE 6 9 29.79 1009 10 16 0.00 0.00
9:51 pm 21:51 Mostly Clear 87 30.6 56 13.3 35 35 ESE 17 28 29.85 1011 10 16 0.00 0.03
10:51 pm 22:51 Clear 83 28.3 54 12.2 37 37 SSE 3 6 29.84 1011 10 16 0.00 0.00
11:51 pm 23:51 Clear 83 28.3 51 10.6 33 33 ENE 6 9 29.83 1010 10 16 0.00 0.00

Powered by AerisWeather